Location: Mount Kobau Star Party
(49.1167°N, 119.7333°W)
Time: 12:34:52
(UTC-07:00)

ARIANE 6 FM1 Upper Stage - Pass Details

Date: 11 April 2026
Orbit: 526 x 601 km, 62.0° (Epoch: 18 May)

Event Time Altitude Azimuth Distance (km) Brightness Sun altitude
Rises 20:53:49 0° 227° (SW) 2,725 6.4 -11.2°
Reaches altitude 10° 20:56:03 10° 229° (SW) 1,822 5.5 -11.6°
Maximum altitude 21:00:09 77° 316° (NW) 560 2.7 -12.1°
Drops below altitude 10° 21:04:11 10° 43° (NE) 1,794 5.1 -12.7°
Sets 21:06:22 0° 44° (NE) 2,680 6.0 -13.0°
